Location: Bukit Lungun
(2.6833°N, 113.9667°E)
Time: 14:19:14
(UTC+00:00)

H-2A R/B - Pass Details

Date: 02 March 2021
Orbit: 578 x 654 km, 98.5° (Epoch: 21 April)

Event Time Altitude Azimuth Distance (km) Brightness Sun altitude
Rises 20:55:11 0° 146° (SE) 2,952 6.1 -25.4°
Reaches altitude 10° 20:57:43 10° 133° (SE) 2,031 5.4 -24.7°
Maximum altitude 21:01:21 25° 78° (ENE) 1,267 4.3 -23.8°
Drops below altitude 10° 21:04:56 10° 22° (NNE) 1,989 4.8 -23.0°
Sets 21:07:23 0° 9° (N) 2,879 5.5 -22.3°
